MONTAUK POINT NM SSW of Montauk Point, NY (44017)

Conditions for Wednesday

Daily
Weekly
Monthly
Marine Data Graph

Marine & Boating Location Search

Enter a coastal zip code for marine weather.

General Information

Location: 40.694 North -72.048 West
Buoy Type: 3-meter discus buoy
Buoy Hull: 3DV06
Payload: AMPS payload
Owned by: NDBC
Windspeed: Measured by obtained from anemometer
Sea Surface: Measured by Intake
Note: Right whales are active off NY from November to April.  Speed restrictions of 10 knots apply to vessels 65 feet or greater in specific areas along the mid-Atlantic coast.  To learn more about right whales and rules protecting them, go to: http://www.nmfs.noaa.gov/pr/shipstrike 

Weather and Wave Data

Time Temp Humidity Wind Dominant Wave Wind Wave Wave Swell Pressure
  Air
(°F)
Water
(°F)
  Dir Speed
(kts)
Speed
(mph)
Period
(sec)
Height
(ft)
Range
(ft)
Period
(sec)
Height
(ft)
Range
(ft)
Period
(sec)
Height
(ft)
Range
(ft)
Atmo.
(in)
Tend.
(in)
20:50 41 40 62 SE 3.9 4.5 11 1.64 exactly 1.6 - - - 11 1.64 0.82 - 2.46 30.04 +0.05
21:50 40 40 66 East 7.8 8.9 11 1.64 exactly 1.6 - - - 11 1.64 0.82 - 2.46 30.03 -
22:50 40 40 72 East 9.7 11.2 11 1.64 exactly 1.6 - - - 11 1.64 0.82 - 2.46 30.02 -0.01
00:50 39 40 73 ENE 13.6 15.7 12 1.97 exactly 2.0 3 1.64 0.82 - 2.46 12 1.64 0.82 - 2.46 30.01 -0.02
01:50 39 40 74 ENE 15.6 17.9 11 2.62 exactly 2.6 3 1.64 0.82 - 2.46 11 1.64 0.82 - 2.46 29.99 -0.03
02:50 39 40 76 East 15.6 17.9 4 2.95 exactly 3.0 4 1.64 0.82 - 2.46 11 1.64 0.82 - 2.46 29.97 -
03:50 39 40 80 ENE 15.6 17.9 4 2.62 exactly 2.6 4 1.64 0.82 - 2.46 11 1.64 0.82 - 2.46 29.96 -0.05
04:50 39 40 82 ENE 21.4 24.6 4 3.28 exactly 3.3 4 3.28 2.46 - 4.10 11 1.64 0.82 - 2.46 29.92 -0.07
05:50 39 40 83 ENE 21.4 24.6 4 3.94 exactly 3.9 4 3.28 2.46 - 4.10 11 1.64 0.82 - 2.46 29.93 -0.05
06:50 39 40 83 ENE 23.3 26.8 5 4.27 exactly 4.3 5 3.28 2.46 - 4.10 11 1.64 0.82 - 2.46 29.93 -0.03
07:50 39 40 83 ENE 25.3 29.1 5 5.25 exactly 5.2 5 4.92 4.10 - 5.74 9 1.64 0.82 - 2.46 29.91 -
08:50 40 40 81 ENE 27.2 31.3 5 6.56 exactly 6.6 5 6.56 5.74 - 7.38 11 1.64 0.82 - 2.46 29.90 -0.02
09:50 40 40 78 East 27.2 31.3 6 6.89 exactly 6.9 6 6.56 5.74 - 7.38 11 1.64 0.82 - 2.46 29.90 -0.03
11:50 40 40 75 ENE 31.1 35.8 6 10.17 exactly 10.2 6 9.84 9.02 - 10.66 11 1.64 0.82 - 2.46 29.87 -0.03
12:50 39 40 80 ENE 31.1 35.8 7 11.48 exactly 11.5 7 11.48 10.66 - 12.30 - - - 29.84 -0.06
13:50 39 40 79 ENE 31.1 35.8 8 12.47 exactly 12.5 8 13.12 12.30 - 13.94 12 1.64 0.82 - 2.46 29.83 -
14:50 39 40 80 NE 35.0 40.3 8 12.80 exactly 12.8 8 13.12 12.30 - 13.94 14 1.64 0.82 - 2.46 29.78 -0.09
15:50 39 40 83 NE 35.0 40.3 8 14.11 exactly 14.1 8 14.76 13.94 - 15.58 - - - 29.77 -0.07
16:50 39 40 84 NE 35.0 40.3 8 14.44 exactly 14.4 8 14.76 13.94 - 15.58 - - - 29.76 -0.06
17:50 38 40 89 NE 36.9 42.5 8 15.42 exactly 15.4 8 14.76 13.94 - 15.58 14 1.64 0.82 - 2.46 29.77 -0.02
18:50 38 41 93 NE 36.9 42.5 8 14.76 exactly 14.8 8 14.76 13.94 - 15.58 - - - 29.77 -
19:50 38 41 92 NE 36.9 42.5 9 17.06 exactly 17.1 9 16.40 15.58 - 17.22 15 1.64 0.82 - 2.46 29.76 -
20:50 38 41 91 NE 38.9 44.7 9 16.73 exactly 16.7 9 16.40 15.58 - 17.22 13 4.92 4.10 - 5.74 29.76 -
21:50 38 41 89 NNE 35.0 40.3 10 16.08 exactly 16.1 7 13.12 12.30 - 13.94 10 8.20 7.38 - 9.02 29.78 -
22:50 38 41 86 NNE 36.9 42.5 9 17.39 exactly 17.4 9 16.40 15.58 - 17.22 16 4.92 4.10 - 5.74 29.76 -
23:50 37 41 89 NNE 36.9 42.5 10 17.72 exactly 17.7 6 14.76 13.94 - 15.58 10 11.48 10.66 - 12.30 29.75 -0.01
00:50 37 40 91 NNE 36.9 42.5 10 18.70 exactly 18.7 10 18.04 17.22 - 18.86 - - - 29.74 -0.04
01:50 37 40 86 NNE 36.9 42.5 11 16.73 exactly 16.7 6 11.48 10.66 - 12.30 11 13.12 12.30 - 13.94 29.74 -0.03
02:50 37 40 83 NNE 36.9 42.5 11 16.73 exactly 16.7 8 13.12 12.30 - 13.94 11 9.84 9.02 - 10.66 29.73 -0.02
03:50 37 40 82 NNE 35.0 40.3 11 17.72 exactly 17.7 11 18.04 17.22 - 18.86 - - - 29.74 -

Detailed Wave Spectra

Time Water Depth Wave Height Spectral Peak Period Average Wave Period Sampling Interval Wave Record
20:00 171 ft 1.94 ft 11.4 sec 5.8 sec 0.6 sec 2400 sec
21:00 171 ft 1.61 ft 11.4 sec 5.3 sec 0.6 sec 2400 sec
22:00 171 ft 1.80 ft 10.8 sec 5.8 sec 0.6 sec 2400 sec
23:00 171 ft 1.61 ft 11.4 sec 5.8 sec 0.6 sec 2400 sec
01:00 171 ft 2.10 ft 12.1 sec 4.0 sec 0.6 sec 2400 sec
02:00 171 ft 2.59 ft 11.4 sec 4.0 sec 0.6 sec 2400 sec
03:00 171 ft 2.85 ft 4.0 sec 4.0 sec 0.6 sec 2400 sec
04:00 171 ft 2.69 ft 3.8 sec 4.0 sec 0.6 sec 2400 sec
05:00 171 ft 3.44 ft 4.2 sec 4.0 sec 0.6 sec 2400 sec
06:00 171 ft 3.97 ft 4.3 sec 4.2 sec 0.6 sec 2400 sec
07:00 171 ft 4.20 ft 5.0 sec 4.2 sec 0.6 sec 2400 sec
08:00 171 ft 5.28 ft 5.0 sec 4.4 sec 0.6 sec 2400 sec
09:00 171 ft 6.53 ft 5.3 sec 4.7 sec 0.6 sec 2400 sec
10:00 171 ft 7.02 ft 5.9 sec 4.9 sec 0.6 sec 2400 sec
12:00 171 ft 10.07 ft 6.3 sec 5.6 sec 0.6 sec 2400 sec
13:00 171 ft 11.35 ft 7.1 sec 5.9 sec 0.6 sec 2400 sec
14:00 171 ft 12.53 ft 7.7 sec 6.2 sec 0.6 sec 2400 sec
15:00 171 ft 12.86 ft 7.7 sec 6.4 sec 0.6 sec 2400 sec
16:00 171 ft 14.11 ft 8.3 sec 6.5 sec 0.6 sec 2400 sec
17:00 171 ft 14.30 ft 8.3 sec 6.5 sec 0.6 sec 2400 sec
18:00 171 ft 15.55 ft 8.3 sec 6.8 sec 0.6 sec 2400 sec
19:00 171 ft 14.80 ft 8.3 sec 6.7 sec 0.6 sec 2400 sec
20:00 171 ft 17.09 ft 9.1 sec 7.0 sec 0.6 sec 2400 sec
21:00 171 ft 16.60 ft 9.1 sec 7.1 sec 0.6 sec 2400 sec
22:00 171 ft 15.98 ft 10.0 sec 7.0 sec 0.6 sec 2400 sec
23:00 171 ft 17.32 ft 9.1 sec 7.2 sec 0.6 sec 2400 sec
00:00 171 ft 17.65 ft 10.0 sec 7.3 sec 0.6 sec 2400 sec
01:00 171 ft 18.54 ft 10.0 sec 7.5 sec 0.6 sec 2400 sec
02:00 171 ft 16.80 ft 10.8 sec 7.5 sec 0.6 sec 2400 sec
03:00 171 ft 16.86 ft 10.8 sec 7.3 sec 0.6 sec 2400 sec